| time (UTC) | temp C | wind direction | speed KPH | gust KPH | rain 1hr cm | rain 24hr cm | rain mn cm | humidity % | barometer mb |
| 20260901151958 | 8 | 250 | 46.7 | 61.2 | 0.00 | 0.00 | 0.00 | 87 | |
| 20260901142158 | 8 | 240 | 38.6 | 0.0 | 0.00 | 0.00 | 0.00 | 87 | |
| 20260901132058 | 7 | 240 | 46.7 | 0.0 | 0.00 | 0.00 | 0.00 | 87 | |
| 20260901121958 | 7 | 250 | 53.1 | 72.4 | 0.00 | 0.00 | 0.00 | 93 | |
| 20260901112059 | 7 | 260 | 38.6 | 53.1 | 0.00 | 0.00 | 0.00 | 99 | |
| 20260901102258 | 6 | 260 | 49.9 | 72.4 | 0.00 | 0.00 | 0.00 | 99 | |
| 20260901091958 | 6 | 250 | 69.2 | 0.0 | 0.00 | 0.00 | 0.00 | 99 | |
| 20260901082201 | 6 | 240 | 64.4 | 86.9 | 0.00 | 0.00 | 0.00 | 99 | |
| 20260901072157 | 6 | 230 | 64.4 | 95.0 | 0.00 | 0.00 | 0.00 | 99 | |
| 20260901061957 | 5 | 230 | 72.4 | 96.6 | 0.00 | 0.00 | 0.00 | 99 | |
| 20260901052041 | 5 | 230 | 83.7 | 99.8 | 0.00 | 0.00 | 0.00 | 99 | |
| 20260901042257 | 5 | 240 | 72.4 | 90.1 | 0.00 | 0.00 | 0.00 | 99 | |
| 20260901031957 | 5 | 230 | 61.2 | 0.0 | 0.00 | 0.00 | 0.00 | 99 | |
| 20260901022158 | 6 | 220 | 75.6 | 96.6 | 0.00 | 0.00 | 0.00 | 99 | |
| 20260901012201 | 7 | 210 | 53.1 | 83.7 | 0.00 | 0.00 | 0.00 | 93 | |
| 20260901001957 | 7 | 220 | 38.6 | 72.4 | 0.00 | 0.00 | 0.00 | 99 | |
| 20260831232113 | 7 | 230 | 46.7 | 75.6 | 0.00 | 0.00 | 0.00 | 93 | |
| 20260831222259 | 8 | 240 | 57.9 | 0.0 | 0.00 | 0.00 | 0.00 | 87 | |
| 20260831211958 | 8 | 210 | 38.6 | 75.6 | 0.00 | 0.00 | 0.00 | 87 | |
| 20260831202158 | 8 | 180 | 38.6 | 69.2 | 0.00 | 0.00 | 0.00 | 93 | |
| 20260831192202 | 10 | 190 | 35.4 | 57.9 | 0.00 | 0.00 | 0.00 | 93 | |
| 20260831181959 | 8 | 200 | 29.0 | 64.4 | 0.00 | 0.00 | 0.00 | 93 | |
| 20260831172158 | 10 | 190 | 29.0 | 61.2 | 0.00 | 0.00 | 0.00 | 93 | |
| 20260831162300 | 10 | 190 | 22.5 | 41.8 | 0.00 | 0.00 | 0.00 | 99 |